| time (UTC) | temp F | wind direction | speed MPH | gust MPH | rain 1hr in | rain 24hr in | rain mn in | humidity % | barometer mb |
| 20260906085022 | 61 | 133 | 0.0 | 0.0 | 0.01 | 0.01 | 0.01 | 98 | 1011.5 |
| 20260906084558 | 61 | 128 | 0.0 | 0.0 | 0.01 | 0.01 | 0.01 | 98 | 1011.4 |
| 20260906084502 | 61 | 128 | 0.0 | 0.0 | 0.01 | 0.01 | 0.01 | 98 | 1011.4 |
| 20260906084036 | 61 | 128 | 0.0 | 0.0 | 0.01 | 0.01 | 0.01 | 98 | 1011.3 |
| 20260906083507 | 61 | 128 | 0.0 | 0.0 | 0.01 | 0.01 | 0.01 | 98 | 1011.3 |
| 20260906083041 | 61 | 128 | 0.0 | 0.0 | 0.01 | 0.01 | 0.01 | 98 | 1011.4 |
| 20260906082556 | 61 | 128 | 0.0 | 0.0 | 0.01 | 0.01 | 0.01 | 98 | 1011.4 |
| 20260906082028 | 61 | 128 | 0.0 | 0.0 | 0.01 | 0.01 | 0.01 | 98 | 1011.4 |
| 20260906081502 | 62 | 128 | 0.0 | 0.0 | 0.00 | 0.00 | 0.00 | 98 | 1011.4 |
| 20260906081038 | 62 | 128 | 0.0 | 0.0 | 0.00 | 0.00 | 0.00 | 98 | 1011.4 |
| 20260906080511 | 62 | 128 | 0.0 | 0.0 | 0.00 | 0.00 | 0.00 | 98 | 1011.3 |
| 20260906080027 | 62 | 128 | 0.0 | 0.0 | 0.00 | 0.00 | 0.00 | 97 | 1011.4 |
| 20260906075600 | 62 | 128 | 0.0 | 0.0 | 0.00 | 0.00 | 0.00 | 97 | 1011.4 |
| 20260906075503 | 62 | 128 | 0.0 | 0.0 | 0.00 | 0.00 | 0.00 | 97 | 1011.4 |
| 20260906075039 | 62 | 128 | 0.0 | 0.0 | 0.00 | 0.00 | 0.00 | 98 | 1011.4 |
| 20260906074511 | 62 | 128 | 0.0 | 0.0 | 0.00 | 0.00 | 0.00 | 98 | 1011.3 |
| 20260906074042 | 62 | 128 | 0.0 | 0.0 | 0.00 | 0.00 | 0.00 | 97 | 1011.3 |
| 20260906073559 | 62 | 128 | 0.0 | 0.0 | 0.00 | 0.00 | 0.00 | 97 | 1011.3 |
| 20260906073029 | 62 | 128 | 0.0 | 0.0 | 0.00 | 0.00 | 0.00 | 98 | 1011.4 |
| 20260906072558 | 62 | 128 | 0.0 | 0.0 | 0.00 | 0.00 | 0.00 | 97 | 1011.4 |
| 20260906072503 | 62 | 128 | 0.0 | 0.0 | 0.00 | 0.00 | 0.00 | 97 | 1011.4 |
| 20260906072034 | 62 | 128 | 0.0 | 0.0 | 0.00 | 0.00 | 0.00 | 97 | 1011.2 |
| 20260906071504 | 63 | 128 | 0.0 | 0.0 | 0.00 | 0.00 | 0.00 | 97 | 1011.3 |
| 20260906071032 | 63 | 128 | 0.0 | 0.0 | 0.00 | 0.00 | 0.00 | 97 | 1011.2 |
| 20260906070511 | 63 | 128 | 0.0 | 0.0 | 0.00 | 0.00 | 0.00 | 97 | 1011.0 |
| 20260906070043 | 63 | 128 | 0.0 | 0.0 | 0.00 | 0.00 | 0.00 | 97 | 1011.0 |
| 20260906065515 | 63 | 128 | 0.0 | 0.0 | 0.00 | 0.00 | 0.00 | 97 | 1011.1 |
| 20260906065049 | 63 | 128 | 0.0 | 0.0 | 0.00 | 0.00 | 0.00 | 97 | 1011.0 |
| 20260906064528 | 64 | 128 | 0.0 | 0.0 | 0.00 | 0.00 | 0.00 | 97 | 1011.1 |
| 20260906064052 | 64 | 128 | 0.0 | 0.0 | 0.00 | 0.00 | 0.00 | 97 | 1011.1 |
| 20260906063524 | 64 | 128 | 0.0 | 0.0 | 0.00 | 0.00 | 0.00 | 97 | 1011.1 |
| 20260906063059 | 64 | 128 | 0.0 | 0.0 | 0.00 | 0.00 | 0.00 | 97 | 1011.1 |
| 20260906062531 | 64 | 138 | 0.0 | 2.0 | 0.00 | 0.00 | 0.00 | 97 | 1011.0 |
| 20260906062006 | 64 | 138 | 0.0 | 3.0 | 0.00 | 0.00 | 0.00 | 97 | 1011.0 |
| 20260906061540 | 64 | 160 | 1.0 | 3.0 | 0.00 | 0.00 | 0.00 | 97 | 1010.9 |
| 20260906061010 | 65 | 152 | 1.0 | 3.0 | 0.00 | 0.00 | 0.00 | 97 | 1010.9 |
| 20260906060546 | 65 | 159 | 0.0 | 2.0 | 0.00 | 0.00 | 0.00 | 97 | 1010.9 |
| 20260906060105 | 65 | 157 | 0.0 | 0.0 | 0.00 | 0.00 | 0.00 | 97 | 1010.9 |
| 20260906060003 | 65 | 128 | 0.0 | 0.0 | 0.00 | 0.00 | 0.00 | 97 | 1010.9 |
| 20260906055532 | 65 | 128 | 0.0 | 0.0 | 0.00 | 0.00 | 0.00 | 97 | 1011.0 |
| 20260906055008 | 65 | 128 | 0.0 | 0.0 | 0.00 | 0.00 | 0.00 | 97 | 1011.0 |
| 20260906054544 | 65 | 128 | 0.0 | 0.0 | 0.00 | 0.00 | 0.00 | 98 | 1011.0 |
| 20260906054016 | 65 | 128 | 0.0 | 1.0 | 0.00 | 0.00 | 0.00 | 98 | 1011.0 |
| 20260906053530 | 65 | 128 | 0.0 | 1.0 | 0.00 | 0.00 | 0.00 | 97 | 1010.9 |
| 20260906053019 | 65 | 194 | 0.0 | 0.0 | 0.00 | 0.00 | 0.00 | 97 | 1010.9 |
| 20260906052548 | 65 | 194 | 0.0 | 0.0 | 0.00 | 0.00 | 0.00 | 97 | 1011.1 |
| 20260906052016 | 65 | 194 | 0.0 | 0.0 | 0.00 | 0.00 | 0.00 | 97 | 1011.0 |
| 20260906051555 | 66 | 194 | 0.0 | 0.0 | 0.00 | 0.00 | 0.00 | 97 | 1011.2 |
| 20260906051008 | 66 | 194 | 0.0 | 0.0 | 0.00 | 0.00 | 0.00 | 97 | 1011.1 |
| 20260906050542 | 66 | 194 | 0.0 | 0.0 | 0.00 | 0.00 | 0.00 | 97 | 1011.2 |
| 20260906050010 | 66 | 194 | 0.0 | 0.0 | 0.00 | 0.00 | 0.00 | 97 | 1011.1 |
| 20260906045540 | 66 | 194 | 0.0 | 0.0 | 0.00 | 0.00 | 0.00 | 97 | 1011.1 |
| 20260906045008 | 66 | 194 | 0.0 | 0.0 | 0.00 | 0.00 | 0.00 | 97 | 1011.1 |
| 20260906044544 | 67 | 194 | 0.0 | 0.0 | 0.00 | 0.00 | 0.00 | 97 | 1011.1 |
| 20260906044058 | 67 | 194 | 0.0 | 0.0 | 0.00 | 0.00 | 0.00 | 97 | 1011.2 |
| 20260906043530 | 67 | 194 | 0.0 | 0.0 | 0.00 | 0.00 | 0.00 | 97 | 1011.2 |
| 20260906043004 | 67 | 194 | 0.0 | 0.0 | 0.00 | 0.00 | 0.00 | 97 | 1011.3 |
| 20260906042536 | 67 | 194 | 0.0 | 0.0 | 0.00 | 0.00 | 0.00 | 97 | 1011.4 |
| 20260906042006 | 67 | 194 | 0.0 | 0.0 | 0.00 | 0.00 | 0.00 | 97 | 1011.4 |
| 20260906041546 | 68 | 194 | 0.0 | 0.0 | 0.00 | 0.00 | 0.00 | 97 | 1011.4 |
| 20260906041009 | 68 | 194 | 0.0 | 0.0 | 0.00 | 0.00 | 0.00 | 97 | 1011.4 |
| 20260906040542 | 68 | 194 | 0.0 | 0.0 | 0.00 | 0.00 | 0.00 | 97 | 1011.5 |
| 20260906040016 | 68 | 194 | 0.0 | 0.0 | 0.00 | 0.00 | 0.00 | 97 | 1011.4 |
| 20260906035543 | 68 | 194 | 0.0 | 0.0 | 0.00 | 0.00 | 0.00 | 96 | 1011.3 |
| 20260906035014 | 68 | 194 | 0.0 | 0.0 | 0.00 | 0.00 | 0.00 | 97 | 1011.4 |
| 20260906034533 | 69 | 194 | 0.0 | 0.0 | 0.00 | 0.00 | 0.00 | 97 | 1011.4 |
| 20260906034005 | 69 | 194 | 0.0 | 0.0 | 0.00 | 0.00 | 0.00 | 97 | 1011.4 |
| 20260906033546 | 69 | 194 | 0.0 | 0.0 | 0.00 | 0.00 | 0.00 | 97 | 1011.3 |
| 20260906033018 | 69 | 194 | 0.0 | 0.0 | 0.00 | 0.00 | 0.00 | 97 | 1011.4 |
| 20260906032545 | 69 | 194 | 0.0 | 0.0 | 0.00 | 0.00 | 0.00 | 97 | 1011.4 |
| 20260906032026 | 69 | 194 | 0.0 | 0.0 | 0.00 | 0.00 | 0.00 | 97 | 1011.5 |
| 20260906031558 | 69 | 194 | 0.0 | 0.0 | 0.00 | 0.00 | 0.00 | 97 | 1011.5 |
| 20260906031028 | 69 | 194 | 0.0 | 0.0 | 0.00 | 0.00 | 0.00 | 97 | 1011.4 |
| 20260906030558 | 69 | 194 | 0.0 | 0.0 | 0.00 | 0.00 | 0.00 | 97 | 1011.4 |
| 20260906030036 | 69 | 194 | 0.0 | 0.0 | 0.00 | 0.00 | 0.00 | 97 | 1011.4 |
| 20260906025509 | 69 | 194 | 0.0 | 0.0 | 0.00 | 0.00 | 0.00 | 97 | 1011.4 |
| 20260906025039 | 70 | 194 | 0.0 | 0.0 | 0.00 | 0.00 | 0.00 | 97 | 1011.3 |
| 20260906024512 | 70 | 194 | 0.0 | 0.0 | 0.00 | 0.00 | 0.00 | 97 | 1011.3 |
| 20260906024045 | 70 | 194 | 0.0 | 0.0 | 0.00 | 0.00 | 0.00 | 97 | 1011.2 |
| 20260906023518 | 70 | 194 | 0.0 | 0.0 | 0.00 | 0.00 | 0.00 | 97 | 1011.2 |
| 20260906023049 | 70 | 194 | 0.0 | 0.0 | 0.00 | 0.00 | 0.00 | 97 | 1011.3 |
| 20260906022529 | 70 | 194 | 0.0 | 0.0 | 0.00 | 0.00 | 0.00 | 97 | 1011.1 |
| 20260906022043 | 70 | 194 | 0.0 | 0.0 | 0.00 | 0.00 | 0.00 | 97 | 1011.0 |
| 20260906021600 | 70 | 194 | 0.0 | 0.0 | 0.00 | 0.00 | 0.00 | 96 | 1011.0 |
| 20260906021029 | 70 | 194 | 0.0 | 0.0 | 0.00 | 0.00 | 0.00 | 96 | 1011.0 |
| 20260906020504 | 70 | 194 | 0.0 | 0.0 | 0.00 | 0.00 | 0.00 | 96 | 1011.0 |
| 20260906020036 | 70 | 194 | 0.0 | 0.0 | 0.00 | 0.00 | 0.00 | 96 | 1011.0 |
| 20260906015509 | 70 | 194 | 0.0 | 1.0 | 0.00 | 0.00 | 0.00 | 96 | 1010.9 |
| 20260906015044 | 70 | 194 | 0.0 | 1.0 | 0.00 | 0.00 | 0.00 | 95 | 1010.8 |
| 20260906014521 | 70 | 194 | 0.0 | 2.0 | 0.00 | 0.00 | 0.00 | 95 | 1010.8 |
| 20260906014036 | 70 | 194 | 0.0 | 2.0 | 0.00 | 0.00 | 0.00 | 95 | 1010.8 |
| 20260906013510 | 71 | 194 | 0.0 | 2.0 | 0.00 | 0.00 | 0.00 | 95 | 1010.8 |
| 20260906013040 | 71 | 194 | 0.0 | 2.0 | 0.00 | 0.00 | 0.00 | 95 | 1010.7 |
| 20260906012512 | 71 | 128 | 0.0 | 1.0 | 0.00 | 0.00 | 0.00 | 95 | 1010.6 |
| 20260906012045 | 71 | 128 | 0.0 | 0.0 | 0.00 | 0.00 | 0.00 | 95 | 1010.6 |
| 20260906011519 | 71 | 128 | 0.0 | 1.0 | 0.00 | 0.00 | 0.00 | 95 | 1010.4 |
| 20260906011048 | 71 | 128 | 0.0 | 1.0 | 0.00 | 0.00 | 0.00 | 95 | 1010.3 |
| 20260906010527 | 71 | 128 | 0.0 | 3.0 | 0.00 | 0.00 | 0.00 | 95 | 1010.3 |
| 20260906010059 | 71 | 128 | 1.0 | 4.0 | 0.00 | 0.00 | 0.00 | 95 | 1010.3 |
| 20260906010001 | 71 | 128 | 1.0 | 4.0 | 0.00 | 0.00 | 0.00 | 95 | 1010.3 |
| 20260906005537 | 71 | 155 | 0.0 | 4.0 | 0.00 | 0.00 | 0.00 | 95 | 1010.2 |
| 20260906005007 | 71 | 225 | 0.0 | 0.0 | 0.00 | 0.00 | 0.00 | 95 | 1010.1 |
| 20260906004542 | 71 | 313 | 0.0 | 0.0 | 0.00 | 0.00 | 0.00 | 95 | 1010.0 |
| 20260906004053 | 71 | 313 | 0.0 | 0.0 | 0.00 | 0.00 | 0.00 | 94 | 1009.9 |
| 20260906003524 | 71 | 313 | 0.0 | 1.0 | 0.00 | 0.00 | 0.00 | 94 | 1010.0 |
| 20260906003057 | 71 | 313 | 0.0 | 1.0 | 0.00 | 0.00 | 0.00 | 93 | 1009.9 |
| 20260906002533 | 72 | 313 | 0.0 | 0.0 | 0.00 | 0.00 | 0.00 | 93 | 1009.9 |
| 20260906002009 | 72 | 313 | 0.0 | 1.0 | 0.00 | 0.00 | 0.00 | 93 | 1009.8 |
| 20260906001546 | 72 | 313 | 0.0 | 2.0 | 0.00 | 0.00 | 0.00 | 93 | 1009.9 |
| 20260906001018 | 72 | 313 | 0.0 | 2.0 | 0.00 | 0.00 | 0.00 | 92 | 1009.9 |
| 20260906000533 | 72 | 313 | 0.0 | 2.0 | 0.00 | 0.00 | 0.00 | 91 | 1009.8 |
| 20260906000007 | 73 | 284 | 0.0 | 0.0 | 0.00 | 0.00 | 0.00 | 91 | 1009.7 |
| 20260905235543 | 73 | 284 | 0.0 | 0.0 | 0.00 | 0.00 | 0.00 | 90 | 1009.6 |
| 20260905235017 | 73 | 284 | 0.0 | 0.0 | 0.00 | 0.00 | 0.00 | 89 | 1009.6 |
| 20260905234551 | 74 | 284 | 0.0 | 0.0 | 0.00 | 0.00 | 0.00 | 89 | 1009.7 |
| 20260905234007 | 74 | 284 | 0.0 | 0.0 | 0.00 | 0.00 | 0.00 | 88 | 1009.7 |
| 20260905233539 | 74 | 284 | 0.0 | 0.0 | 0.00 | 0.00 | 0.00 | 87 | 1009.6 |
| 20260905233011 | 75 | 284 | 0.0 | 0.0 | 0.00 | 0.00 | 0.00 | 86 | 1009.5 |
| 20260905232547 | 75 | 284 | 0.0 | 0.0 | 0.00 | 0.00 | 0.00 | 86 | 1009.5 |
| 20260905232017 | 76 | 284 | 0.0 | 0.0 | 0.00 | 0.00 | 0.00 | 84 | 1009.6 |
| 20260905231554 | 76 | 284 | 0.0 | 0.0 | 0.00 | 0.00 | 0.00 | 83 | 1009.6 |
| 20260905231004 | 77 | 284 | 0.0 | 0.0 | 0.00 | 0.00 | 0.00 | 82 | 1009.6 |
| 20260905230541 | 77 | 284 | 0.0 | 0.0 | 0.00 | 0.00 | 0.00 | 82 | 1009.6 |
| 20260905230011 | 78 | 284 | 0.0 | 0.0 | 0.00 | 0.00 | 0.00 | 80 | 1009.6 |
| 20260905225544 | 78 | 284 | 0.0 | 0.0 | 0.00 | 0.00 | 0.00 | 79 | 1009.5 |
| 20260905225015 | 78 | 284 | 0.0 | 0.0 | 0.00 | 0.00 | 0.00 | 79 | 1009.5 |
| 20260905224605 | 78 | 284 | 0.0 | 0.0 | 0.00 | 0.00 | 0.00 | 78 | 1009.4 |
| 20260905224003 | 79 | 284 | 0.0 | 0.0 | 0.00 | 0.00 | 0.00 | 77 | 1009.4 |
| 20260905223538 | 79 | 284 | 0.0 | 0.0 | 0.00 | 0.00 | 0.00 | 77 | 1009.4 |
| 20260905223011 | 79 | 284 | 0.0 | 0.0 | 0.00 | 0.00 | 0.00 | 77 | 1009.3 |
| 20260905222543 | 78 | 284 | 0.0 | 2.0 | 0.00 | 0.00 | 0.00 | 78 | 1009.2 |
| 20260905222014 | 78 | 284 | 0.0 | 2.0 | 0.00 | 0.00 | 0.00 | 79 | 1009.2 |
| 20260905221548 | 78 | 292 | 0.0 | 3.0 | 0.00 | 0.00 | 0.00 | 80 | 1009.2 |
| 20260905221028 | 78 | 311 | 2.0 | 4.0 | 0.00 | 0.00 | 0.00 | 79 | 1009.2 |
| 20260905220557 | 78 | 286 | 2.0 | 4.0 | 0.00 | 0.00 | 0.00 | 78 | 1009.2 |
| 20260905220500 | 78 | 263 | 2.0 | 4.0 | 0.00 | 0.00 | 0.00 | 79 | 1009.1 |
| 20260905220029 | 78 | 301 | 0.0 | 3.0 | 0.00 | 0.00 | 0.00 | 80 | 1009.1 |
| 20260905215504 | 78 | 293 | 0.0 | 3.0 | 0.00 | 0.00 | 0.00 | 79 | 1009.0 |
| 20260905215036 | 78 | 286 | 0.0 | 3.0 | 0.00 | 0.00 | 0.00 | 79 | 1008.9 |
| 20260905214509 | 78 | 146 | 0.0 | 2.0 | 0.00 | 0.00 | 0.00 | 80 | 1009.0 |
| 20260905214045 | 77 | 146 | 1.0 | 2.0 | 0.00 | 0.00 | 0.00 | 79 | 1009.0 |
| 20260905213515 | 76 | 138 | 0.0 | 1.0 | 0.00 | 0.00 | 0.00 | 82 | 1009.0 |
| 20260905213049 | 76 | 138 | 0.0 | 2.0 | 0.00 | 0.00 | 0.00 | 85 | 1009.0 |
| 20260905212517 | 75 | 138 | 0.0 | 2.0 | 0.00 | 0.00 | 0.00 | 85 | 1009.0 |
| 20260905212047 | 75 | 156 | 0.0 | 1.0 | 0.00 | 0.00 | 0.00 | 85 | 1008.9 |
| 20260905211520 | 75 | 277 | 0.0 | 1.0 | 0.00 | 0.00 | 0.00 | 86 | 1008.8 |
| 20260905211039 | 75 | 277 | 0.0 | 1.0 | 0.00 | 0.00 | 0.00 | 87 | 1008.7 |
| 20260905210508 | 75 | 277 | 0.0 | 3.0 | 0.00 | 0.00 | 0.00 | 89 | 1008.6 |
| 20260905210043 | 75 | 277 | 1.0 | 4.0 | 0.00 | 0.00 | 0.00 | 88 | 1008.6 |
| 20260905205514 | 75 | 138 | 1.0 | 4.0 | 0.00 | 0.00 | 0.00 | 85 | 1008.6 |
| 20260905205049 | 76 | 159 | 1.0 | 6.0 | 0.00 | 0.00 | 0.00 | 84 | 1008.5 |
| 20260905204519 | 76 | 138 | 2.0 | 6.0 | 0.00 | 0.00 | 0.00 | 85 | 1008.4 |
| 20260905204052 | 76 | 189 | 2.0 | 5.0 | 0.00 | 0.00 | 0.00 | 85 | 1008.5 |
| 20260905203524 | 76 | 133 | 1.0 | 2.0 | 0.00 | 0.00 | 0.00 | 85 | 1008.6 |
| 20260905203054 | 76 | 77 | 0.0 | 3.0 | 0.00 | 0.14 | 0.00 | 84 | 1008.6 |
| 20260905202526 | 76 | 98 | 1.0 | 4.0 | 0.00 | 0.14 | 0.00 | 84 | 1008.8 |
| 20260905202044 | 76 | 79 | 1.0 | 5.0 | 0.00 | 0.14 | 0.00 | 83 | 1008.8 |
| 20260905201524 | 76 | 118 | 3.0 | 5.0 | 0.00 | 0.14 | 0.00 | 83 | 1008.6 |
| 20260905201052 | 76 | 148 | 1.0 | 4.0 | 0.00 | 0.14 | 0.00 | 83 | 1008.8 |
| 20260905200518 | 76 | 117 | 2.0 | 4.0 | 0.00 | 0.14 | 0.00 | 83 | 1008.8 |
| 20260905200052 | 76 | 163 | 2.0 | 4.0 | 0.00 | 0.14 | 0.00 | 82 | 1008.8 |
| 20260905195529 | 77 | 168 | 2.0 | 8.0 | 0.00 | 0.14 | 0.00 | 82 | 1008.9 |
| 20260905195044 | 77 | 133 | 3.0 | 9.0 | 0.00 | 0.14 | 0.00 | 82 | 1009.0 |
| 20260905194514 | 77 | 94 | 3.0 | 10.0 | 0.00 | 0.14 | 0.00 | 81 | 1008.9 |
| 20260905194053 | 77 | 152 | 2.0 | 6.0 | 0.00 | 0.14 | 0.00 | 81 | 1009.1 |
| 20260905193520 | 77 | 146 | 2.0 | 7.0 | 0.00 | 0.14 | 0.00 | 80 | 1009.0 |
| 20260905193038 | 77 | 147 | 3.0 | 6.0 | 0.00 | 0.14 | 0.00 | 80 | 1009.1 |
| 20260905192558 | 78 | 121 | 1.0 | 5.0 | 0.00 | 0.14 | 0.00 | 82 | 1009.0 |
| 20260905192035 | 78 | 187 | 1.0 | 4.0 | 0.00 | 0.14 | 0.00 | 82 | 1009.0 |
| 20260905191508 | 78 | 209 | 1.0 | 8.0 | 0.00 | 0.14 | 0.00 | 81 | 1009.2 |
| 20260905191040 | 78 | 115 | 4.0 | 8.0 | 0.00 | 0.14 | 0.00 | 80 | 1009.1 |
| 20260905190514 | 78 | 138 | 0.0 | 3.0 | 0.00 | 0.14 | 0.00 | 79 | 1009.0 |
| 20260905190100 | 79 | 11 | 0.0 | 3.0 | 0.00 | 0.14 | 0.00 | 79 | 1008.9 |
| 20260905185521 | 78 | 302 | 1.0 | 4.0 | 0.00 | 0.14 | 0.00 | 79 | 1009.0 |
| 20260905185058 | 78 | 191 | 0.0 | 5.0 | 0.00 | 0.14 | 0.00 | 79 | 1009.0 |
| 20260905184525 | 78 | 191 | 3.0 | 5.0 | 0.00 | 0.14 | 0.00 | 79 | 1009.1 |
| 20260905184059 | 78 | 198 | 2.0 | 4.0 | 0.00 | 0.14 | 0.00 | 83 | 1009.1 |
| 20260905183530 | 78 | 128 | 0.0 | 5.0 | 0.00 | 0.14 | 0.00 | 83 | 1009.3 |
| 20260905183044 | 78 | 115 | 2.0 | 5.0 | 0.00 | 0.14 | 0.00 | 82 | 1009.3 |
| 20260905182517 | 78 | 109 | 2.0 | 4.0 | 0.00 | 0.14 | 0.00 | 82 | 1009.3 |
| 20260905182053 | 78 | 148 | 2.0 | 4.0 | 0.00 | 0.14 | 0.00 | 82 | 1009.3 |
| 20260905181523 | 78 | 233 | 1.0 | 4.0 | 0.00 | 0.14 | 0.00 | 83 | 1009.4 |
| 20260905181056 | 77 | 232 | 0.0 | 6.0 | 0.00 | 0.14 | 0.00 | 83 | 1009.5 |
| 20260905180532 | 77 | 207 | 2.0 | 6.0 | 0.00 | 0.14 | 0.00 | 83 | 1009.5 |
| 20260905180046 | 77 | 248 | 0.0 | 2.0 | 0.00 | 0.14 | 0.00 | 83 | 1009.6 |
| 20260905175520 | 77 | 291 | 0.0 | 2.0 | 0.00 | 0.14 | 0.00 | 84 | 1009.6 |
| 20260905175052 | 77 | 283 | 0.0 | 2.0 | 0.00 | 0.14 | 0.00 | 84 | 1009.8 |
| 20260905174543 | 77 | 283 | 0.0 | 3.0 | 0.00 | 0.14 | 0.00 | 85 | 1009.8 |
| 20260905174100 | 76 | 238 | 1.0 | 3.0 | 0.00 | 0.14 | 0.00 | 84 | 1009.8 |
| 20260905174002 | 76 | 208 | 0.0 | 3.0 | 0.00 | 0.14 | 0.00 | 85 | 1009.8 |
| 20260905173540 | 76 | 213 | 0.0 | 3.0 | 0.00 | 0.14 | 0.00 | 84 | 1009.8 |
| 20260905173054 | 76 | 213 | 0.0 | 3.0 | 0.00 | 0.14 | 0.00 | 85 | 1010.0 |
| 20260905172526 | 76 | 229 | 2.0 | 4.0 | 0.00 | 0.14 | 0.00 | 85 | 1010.1 |
| 20260905172101 | 76 | 228 | 1.0 | 4.0 | 0.00 | 0.14 | 0.00 | 84 | 1010.1 |
| 20260905172004 | 76 | 220 | 0.0 | 4.0 | 0.00 | 0.14 | 0.00 | 85 | 1010.1 |
| 20260905171537 | 76 | 250 | 2.0 | 4.0 | 0.00 | 0.14 | 0.00 | 85 | 1010.1 |
| 20260905171010 | 76 | 302 | 2.0 | 4.0 | 0.00 | 0.14 | 0.00 | 85 | 1010.2 |
| 20260905170544 | 76 | 274 | 0.0 | 3.0 | 0.00 | 0.14 | 0.00 | 85 | 1010.2 |
| 20260905170013 | 77 | 292 | 1.0 | 3.0 | 0.00 | 0.14 | 0.00 | 85 | 1010.3 |
| 20260905165527 | 77 | 217 | 0.0 | 2.0 | 0.00 | 0.14 | 0.00 | 85 | 1010.3 |
| 20260905165104 | 76 | 201 | 0.0 | 2.0 | 0.00 | 0.14 | 0.00 | 85 | 1010.4 |
| 20260905165002 | 76 | 286 | 0.0 | 2.0 | 0.00 | 0.14 | 0.00 | 85 | 1010.4 |
| 20260905164540 | 76 | 296 | 1.0 | 2.0 | 0.00 | 0.14 | 0.00 | 86 | 1010.3 |
| 20260905164013 | 76 | 269 | 0.0 | 3.0 | 0.00 | 0.14 | 0.00 | 87 | 1010.4 |
| 20260905163544 | 76 | 227 | 1.0 | 3.0 | 0.00 | 0.14 | 0.00 | 85 | 1010.4 |
| 20260905163004 | 75 | 17 | 0.0 | 3.0 | 0.00 | 0.14 | 0.00 | 85 | 1010.5 |
| 20260905162538 | 75 | 17 | 0.0 | 3.0 | 0.00 | 0.14 | 0.00 | 85 | 1010.6 |
| 20260905162007 | 75 | 54 | 0.0 | 2.0 | 0.00 | 0.14 | 0.00 | 86 | 1010.6 |
| 20260905161542 | 75 | 345 | 0.0 | 2.0 | 0.00 | 0.14 | 0.00 | 88 | 1010.7 |
| 20260905161012 | 75 | 313 | 1.0 | 2.0 | 0.00 | 0.14 | 0.00 | 86 | 1010.9 |
| 20260905160529 | 75 | 313 | 0.0 | 2.0 | 0.00 | 0.14 | 0.00 | 86 | 1010.9 |
| 20260905160059 | 75 | 95 | 0.0 | 3.0 | 0.00 | 0.14 | 0.00 | 86 | 1011.0 |
| 20260905155525 | 75 | 95 | 1.0 | 3.0 | 0.00 | 0.14 | 0.00 | 85 | 1011.1 |
| 20260905155101 | 75 | 100 | 0.0 | 2.0 | 0.00 | 0.14 | 0.00 | 86 | 1011.1 |
| 20260905155002 | 75 | 64 | 0.0 | 2.0 | 0.00 | 0.14 | 0.00 | 86 | 1011.1 |
| 20260905154537 | 75 | 72 | 0.0 | 4.0 | 0.00 | 0.14 | 0.00 | 86 | 1011.1 |
| 20260905154008 | 75 | 61 | 2.0 | 4.0 | 0.00 | 0.14 | 0.00 | 86 | 1011.0 |
| 20260905153541 | 75 | 92 | 2.0 | 4.0 | 0.00 | 0.14 | 0.00 | 86 | 1011.1 |
| 20260905153012 | 75 | 104 | 3.0 | 5.0 | 0.00 | 0.14 | 0.00 | 86 | 1011.1 |
| 20260905152544 | 75 | 119 | 2.0 | 5.0 | 0.00 | 0.14 | 0.00 | 87 | 1011.1 |
| 20260905152015 | 75 | 156 | 1.0 | 4.0 | 0.00 | 0.14 | 0.00 | 86 | 1011.1 |
| 20260905151550 | 75 | 133 | 0.0 | 3.0 | 0.00 | 0.14 | 0.00 | 87 | 1011.3 |
| 20260905151023 | 75 | 133 | 1.0 | 3.0 | 0.00 | 0.14 | 0.00 | 86 | 1011.3 |
| 20260905150556 | 75 | 128 | 1.0 | 3.0 | 0.00 | 0.14 | 0.00 | 85 | 1011.3 |
| 20260905150015 | 76 | 208 | 1.0 | 4.0 | 0.00 | 0.14 | 0.00 | 85 | 1011.4 |
| 20260905145549 | 76 | 209 | 1.0 | 4.0 | 0.00 | 0.14 | 0.00 | 86 | 1011.3 |
| 20260905145019 | 76 | 124 | 0.0 | 4.0 | 0.00 | 0.14 | 0.00 | 86 | 1011.3 |
| 20260905144551 | 76 | 100 | 1.0 | 6.0 | 0.00 | 0.14 | 0.00 | 84 | 1011.2 |
| 20260905144026 | 76 | 138 | 3.0 | 8.0 | 0.00 | 0.14 | 0.00 | 84 | 1011.0 |
| 20260905143541 | 76 | 142 | 4.0 | 8.0 | 0.00 | 0.14 | 0.00 | 83 | 1011.0 |
| 20260905143014 | 76 | 194 | 2.0 | 7.0 | 0.00 | 0.14 | 0.00 | 84 | 1010.9 |
| 20260905142549 | 76 | 122 | 2.0 | 10.0 | 0.00 | 0.14 | 0.00 | 84 | 1010.8 |
| 20260905142017 | 76 | 142 | 5.0 | 10.0 | 0.00 | 0.14 | 0.00 | 83 | 1010.9 |
| 20260905141603 | 76 | 123 | 2.0 | 7.0 | 0.00 | 0.14 | 0.00 | 85 | 1010.8 |
| 20260905141027 | 76 | 92 | 2.0 | 7.0 | 0.00 | 0.14 | 0.00 | 85 | 1010.9 |
| 20260905140542 | 76 | 94 | 2.0 | 5.0 | 0.00 | 0.14 | 0.00 | 86 | 1010.8 |
| 20260905140013 | 76 | 113 | 3.0 | 6.0 | 0.00 | 0.14 | 0.00 | 85 | 1010.7 |
| 20260905135547 | 75 | 72 | 3.0 | 8.0 | 0.00 | 0.14 | 0.00 | 85 | 1010.8 |
| 20260905135015 | 75 | 80 | 3.0 | 8.0 | 0.00 | 0.14 | 0.00 | 85 | 1010.6 |
| 20260905134529 | 75 | 91 | 4.0 | 7.0 | 0.00 | 0.14 | 0.00 | 86 | 1010.3 |
| 20260905134007 | 75 | 109 | 2.0 | 5.0 | 0.00 | 0.14 | 0.00 | 87 | 1010.2 |
| 20260905133539 | 75 | 121 | 2.0 | 5.0 | 0.00 | 0.14 | 0.00 | 88 | 1010.2 |
| 20260905133016 | 75 | 155 | 0.0 | 8.0 | 0.00 | 0.14 | 0.00 | 88 | 1010.0 |
| 20260905132543 | 75 | 109 | 3.0 | 8.0 | 0.00 | 0.14 | 0.00 | 88 | 1010.1 |
| 20260905132059 | 74 | 128 | 2.0 | 6.0 | 0.00 | 0.14 | 0.00 | 89 | 1010.2 |
| 20260905132002 | 74 | 124 | 3.0 | 6.0 | 0.00 | 0.14 | 0.00 | 88 | 1010.3 |
| 20260905131552 | 74 | 59 | 4.0 | 6.0 | 0.00 | 0.14 | 0.00 | 88 | 1010.2 |
| 20260905131008 | 74 | 73 | 2.0 | 4.0 | 0.00 | 0.14 | 0.00 | 89 | 1010.1 |
| 20260905130537 | 74 | 54 | 1.0 | 4.0 | 0.00 | 0.14 | 0.00 | 90 | 1010.3 |
| 20260905130005 | 74 | 38 | 1.0 | 3.0 | 0.00 | 0.14 | 0.00 | 89 | 1010.4 |
| 20260905125537 | 73 | 9 | 2.0 | 3.0 | 0.00 | 0.14 | 0.00 | 89 | 1010.5 |
| 20260905125013 | 73 | 75 | 0.0 | 2.0 | 0.00 | 0.14 | 0.00 | 90 | 1010.4 |
| 20260905124548 | 73 | 75 | 0.0 | 1.0 | 0.00 | 0.14 | 0.00 | 91 | 1010.4 |
| 20260905124016 | 73 | 75 | 0.0 | 2.0 | 0.00 | 0.14 | 0.00 | 91 | 1010.4 |
| 20260905123547 | 73 | 75 | 1.0 | 3.0 | 0.00 | 0.14 | 0.00 | 90 | 1010.3 |
| 20260905123017 | 73 | 75 | 1.0 | 3.0 | 0.00 | 0.14 | 0.00 | 90 | 1010.3 |
| 20260905122553 | 72 | 75 | 0.0 | 4.0 | 0.00 | 0.14 | 0.00 | 91 | 1010.2 |
| 20260905122026 | 72 | 75 | 2.0 | 4.0 | 0.00 | 0.14 | 0.00 | 91 | 1010.2 |
| 20260905121557 | 72 | 75 | 1.0 | 3.0 | 0.00 | 0.14 | 0.00 | 92 | 1010.2 |
| 20260905121029 | 71 | 33 | 0.0 | 3.0 | 0.00 | 0.14 | 0.00 | 94 | 1010.2 |
| 20260905120506 | 71 | 60 | 0.0 | 0.0 | 0.00 | 0.14 | 0.00 | 96 | 1010.2 |
| 20260905120035 | 71 | 60 | 0.0 | 0.0 | 0.00 | 0.14 | 0.00 | 97 | 1010.0 |
| 20260905115559 | 70 | 60 | 0.0 | 0.0 | 0.00 | 0.14 | 0.00 | 97 | 1010.0 |
| 20260905115501 | 70 | 60 | 0.0 | 0.0 | 0.00 | 0.14 | 0.00 | 97 | 1010.0 |
| 20260905115037 | 70 | 60 | 0.0 | 0.0 | 0.00 | 0.14 | 0.00 | 97 | 1010.0 |
| 20260905114553 | 69 | 60 | 0.0 | 0.0 | 0.00 | 0.14 | 0.00 | 97 | 1009.9 |
| 20260905114024 | 69 | 60 | 0.0 | 0.0 | 0.00 | 0.14 | 0.00 | 97 | 1009.9 |
| 20260905113555 | 69 | 60 | 0.0 | 0.0 | 0.00 | 0.14 | 0.00 | 97 | 1009.9 |
| 20260905113025 | 68 | 319 | 0.0 | 0.0 | 0.00 | 0.14 | 0.00 | 96 | 1010.0 |
| 20260905112559 | 68 | 319 | 0.0 | 0.0 | 0.00 | 0.14 | 0.00 | 96 | 1009.9 |
| 20260905112502 | 68 | 319 | 0.0 | 0.0 | 0.00 | 0.14 | 0.00 | 96 | 1009.9 |
| 20260905112031 | 68 | 319 | 0.0 | 0.0 | 0.00 | 0.14 | 0.00 | 96 | 1010.1 |
| 20260905111553 | 68 | 319 | 0.0 | 0.0 | 0.00 | 0.14 | 0.00 | 96 | 1009.9 |
| 20260905111023 | 68 | 319 | 0.0 | 0.0 | 0.00 | 0.14 | 0.00 | 96 | 1009.9 |
| 20260905110552 | 68 | 319 | 0.0 | 0.0 | 0.00 | 0.14 | 0.00 | 96 | 1010.2 |
| 20260905110023 | 68 | 319 | 0.0 | 0.0 | 0.00 | 0.14 | 0.00 | 95 | 1010.1 |
| 20260905105556 | 68 | 319 | 0.0 | 0.0 | 0.00 | 0.14 | 0.00 | 95 | 1010.1 |
| 20260905105015 | 68 | 319 | 0.0 | 0.0 | 0.00 | 0.14 | 0.00 | 95 | 1009.8 |
| 20260905104546 | 68 | 319 | 0.0 | 0.0 | 0.00 | 0.14 | 0.00 | 94 | 1009.6 |
| 20260905104024 | 69 | 319 | 0.0 | 0.0 | 0.00 | 0.14 | 0.00 | 94 | 1009.4 |
| 20260905103553 | 69 | 319 | 0.0 | 0.0 | 0.00 | 0.14 | 0.00 | 94 | 1009.2 |
| 20260905103033 | 69 | 319 | 0.0 | 0.0 | 0.00 | 0.14 | 0.00 | 94 | 1009.1 |
| 20260905102558 | 69 | 319 | 0.0 | 0.0 | 0.00 | 0.14 | 0.00 | 94 | 1009.1 |
| 20260905102503 | 69 | 319 | 0.0 | 0.0 | 0.00 | 0.14 | 0.00 | 94 | 1009.0 |
| 20260905102020 | 69 | 319 | 0.0 | 1.0 | 0.00 | 0.14 | 0.00 | 94 | 1009.2 |
| 20260905101618 | 69 | 319 | 0.0 | 1.0 | 0.00 | 0.14 | 0.00 | 93 | 1009.1 |
| 20260905101024 | 69 | 319 | 0.0 | 3.0 | 0.00 | 0.14 | 0.00 | 93 | 1009.2 |
| 20260905100600 | 69 | 319 | 1.0 | 3.0 | 0.00 | 0.14 | 0.00 | 93 | 1009.1 |
| 20260905100501 | 69 | 319 | 1.0 | 3.0 | 0.00 | 0.14 | 0.00 | 93 | 1009.1 |
| 20260905100033 | 70 | 31 | 0.0 | 1.0 | 0.00 | 0.14 | 0.00 | 92 | 1009.1 |
| 20260905095505 | 70 | 31 | 0.0 | 2.0 | 0.00 | 0.14 | 0.00 | 92 | 1009.1 |
| 20260905095014 | 70 | 31 | 0.0 | 2.0 | 0.00 | 0.14 | 0.00 | 92 | 1009.1 |
| 20260905094551 | 70 | 118 | 0.0 | 3.0 | 0.00 | 0.14 | 0.00 | 92 | 1009.1 |
| 20260905094026 | 70 | 118 | 0.0 | 3.0 | 0.00 | 0.14 | 0.00 | 92 | 1009.1 |
| 20260905093602 | 70 | 104 | 0.0 | 2.0 | 0.00 | 0.14 | 0.00 | 92 | 1009.1 |
| 20260905093035 | 70 | 107 | 0.0 | 2.0 | 0.00 | 0.14 | 0.00 | 92 | 1009.0 |
| 20260905092504 | 70 | 82 | 0.0 | 2.0 | 0.00 | 0.14 | 0.00 | 92 | 1009.1 |
| 20260905092039 | 70 | 72 | 0.0 | 2.0 | 0.00 | 0.14 | 0.00 | 92 | 1009.0 |
| 20260905091510 | 70 | 36 | 0.0 | 1.0 | 0.00 | 0.14 | 0.00 | 92 | 1009.0 |
| 20260905091039 | 70 | 128 | 0.0 | 3.0 | 0.00 | 0.14 | 0.00 | 92 | 1009.0 |
| 20260905090514 | 70 | 128 | 1.0 | 3.0 | 0.00 | 0.14 | 0.00 | 93 | 1009.0 |
| 20260905090046 | 70 | 121 | 0.0 | 2.0 | 0.00 | 0.14 | 0.00 | 92 | 1009.1 |
| 20260905085523 | 70 | 121 | 0.0 | 2.0 | 0.00 | 0.14 | 0.00 | 92 | 1009.0 |